Location: Waco, TX
(31.5480°N, 97.1670°W)
Time: 15:11:28
(UTC-05:00)

ISS - Pass Details

Date: 15 September 2019
Orbit: 411 x 421 km, 51.6° (Epoch: 17 September)

Event Time Altitude Azimuth Distance (km) Brightness Sun altitude
Rises 21:17:41 0° 211° (SSW) 2,326 0.2 -22.4°
Enters shadow 21:19:17 - 207° (SSW) 1,683 -0.6 -22.7°
Reaches altitude 10° 21:19:49 10° 204° (SSW) 1,468 - -22.8°
Maximum altitude 21:22:58 43° 131° (SE) 582 - -23.4°
Drops below altitude 10° 21:26:08 10° 58° (ENE) 1,475 - -24.1°
Sets 21:28:17 0° 52° (NE) 2,339 - -24.5°
